When you browse on this site, cookies collect data to enhance your experience and personalize the content and advertising you see.
Visit our Privacy Policy to learn more. By continuing to use the site, you agree to this use of cookies and data.
  • In Hungary
  • List of Countries
  • For 7 days
  • Water Temperature
  • Satellite Maps
  • Weather Map
  • News
  • Weather Widgets
  • user-avatar
    Login

    Hourly Weather Doboj

    Today, 16 February, Saturday

    Time Temperature Precipitation Wind Pressure Humidity
    00:00 +2°C° 0 mm 0 mps 753 mmHg 81%
    01:00 +2°C° 0 mm 0 mps 753 mmHg 83%
    02:00 +1°C° 0 mm 0 mps 752 mmHg 84%
    03:00 +2°C° 0 mm 1 mps 752 mmHg 84%
    04:00 +2°C° 0 mm 1 mps 752 mmHg 85%
    05:00 +2°C° 0 mm 1 mps 752 mmHg 85%
    06:00 +2°C° 0 mm 1 mps 752 mmHg 85%
    07:00 +2°C° 0 mm 1 mps 752 mmHg 84%
    08:00 +4°C° 0 mm 1 mps 752 mmHg 76%
    09:00 +6°C° 0 mm 1 mps 752 mmHg 67%
    10:00 +8°C° 0 mm 1 mps 752 mmHg 59%
    11:00 +9°C° 0 mm 1 mps 752 mmHg 54%
    12:00 +10°C° 0 mm 1 mps 752 mmHg 50%
    13:00 +11°C° 0 mm 1 mps 752 mmHg 46%
    14:00 +11°C° 0 mm 1 mps 751 mmHg 48%
    15:00 +10°C° 0 mm 1 mps 751 mmHg 49%
    16:00 +10°C° 0 mm 1 mps 751 mmHg 51%
    17:00 +9°C° 0 mm 1 mps 751 mmHg 56%
    18:00 +7°C° 0 mm 1 mps 751 mmHg 61%
    19:00 +6°C° 0 mm 1 mps 751 mmHg 66%
    20:00 +5°C° 0 mm 1 mps 751 mmHg 68%
    21:00 +5°C° 0 mm 1 mps 751 mmHg 70%
    22:00 +4°C° 0 mm 1 mps 751 mmHg 72%
    23:00 +4°C° 0 mm 1 mps 751 mmHg 73%

    Tomorrow, 17 February, Sunday

    Time Temperature Precipitation Wind Pressure Humidity
    00:00 +4°C° 0 mm 1 mps 751 mmHg 73%
    01:00 +4°C° 0 mm 1 mps 750 mmHg 74%
    02:00 +3°C° 0 mm 1 mps 750 mmHg 74%
    03:00 +3°C° 0 mm 1 mps 750 mmHg 73%
    04:00 +3°C° 0 mm 1 mps 749 mmHg 73%
    05:00 +3°C° 0 mm 1 mps 750 mmHg 72%
    06:00 +3°C° 0 mm 1 mps 750 mmHg 71%
    07:00 +3°C° 0 mm 1 mps 750 mmHg 70%
    08:00 +4°C° 0 mm 0 mps 750 mmHg 63%
    09:00 +6°C° 0 mm 0 mps 750 mmHg 56%
    10:00 +8°C° 0 mm 0 mps 750 mmHg 49%
    11:00 +9°C° 0 mm 0 mps 749 mmHg 45%
    12:00 +11°C° 0 mm 0 mps 749 mmHg 41%
    13:00 +13°C° 0 mm 1 mps 749 mmHg 38%
    14:00 +13°C° 0 mm 1 mps 748 mmHg 40%
    15:00 +13°C° 0 mm 1 mps 748 mmHg 43%
    16:00 +13°C° 0 mm 1 mps 748 mmHg 45%
    17:00 +11°C° 0 mm 1 mps 748 mmHg 49%
    18:00 +9°C° 0 mm 1 mps 748 mmHg 53%
    19:00 +7°C° 0 mm 0 mps 748 mmHg 57%
    20:00 +7°C° 0 mm 1 mps 748 mmHg 60%
    21:00 +7°C° 0 mm 1 mps 748 mmHg 62%
    22:00 +6°C° 0 mm 1 mps 748 mmHg 64%
    23:00 +6°C° 0 mm 1 mps 748 mmHg 65%

    Day after tomorrow, 18 February, Monday

    Time Temperature Precipitation Wind Pressure Humidity
    00:00 +6°C° 0 mm 1 mps 748 mmHg 66%
    01:00 +5°C° 0 mm 1 mps 747 mmHg 67%
    02:00 +5°C° 0 mm 1 mps 747 mmHg 68%
    03:00 +5°C° 0 mm 1 mps 747 mmHg 69%
    04:00 +4°C° 0 mm 1 mps 747 mmHg 69%
    05:00 +4°C° 0 mm 1 mps 747 mmHg 69%
    06:00 +4°C° 0 mm 1 mps 747 mmHg 70%
    07:00 +4°C° 0 mm 1 mps 747 mmHg 70%
    08:00 +6°C° 0 mm 1 mps 747 mmHg 63%
    09:00 +7°C° 0 mm 0 mps 747 mmHg 56%
    10:00 +10°C° 0 mm 0 mps 747 mmHg 49%
    11:00 +11°C° 0 mm 0 mps 747 mmHg 45%
    12:00 +13°C° 0 mm 1 mps 746 mmHg 42%
    13:00 +15°C° 0 mm 1 mps 746 mmHg 39%
    14:00 +14°C° 0 mm 1 mps 746 mmHg 41%
    15:00 +14°C° 0 mm 1 mps 745 mmHg 43%
    16:00 +14°C° 0 mm 1 mps 745 mmHg 45%
    17:00 +12°C° 0 mm 1 mps 745 mmHg 51%
    18:00 +11°C° 0 mm 1 mps 745 mmHg 56%
    19:00 +9°C° 0 mm 1 mps 745 mmHg 61%
    20:00 +8°C° 0 mm 1 mps 746 mmHg 63%
    21:00 +8°C° 0 mm 1 mps 746 mmHg 65%
    22:00 +7°C° 0 mm 1 mps 746 mmHg 68%
    23:00 +7°C° 0 mm 1 mps 746 mmHg 69%

    19 February, Tuesday

    Time Temperature Precipitation Wind Pressure Humidity
    00:00 +7°C° 0 mm 1 mps 746 mmHg 70%
    01:00 +6°C° 0 mm 1 mps 746 mmHg 71%
    02:00 +6°C° 0 mm 1 mps 745 mmHg 72%
    03:00 +6°C° 0 mm 1 mps 745 mmHg 72%
    04:00 +5°C° 0 mm 1 mps 745 mmHg 73%
    05:00 +5°C° 0 mm 1 mps 745 mmHg 73%
    06:00 +5°C° 0 mm 1 mps 745 mmHg 73%
    07:00 +5°C° 0 mm 1 mps 745 mmHg 73%
    08:00 +7°C° 0 mm 1 mps 745 mmHg 65%
    09:00 +9°C° 0 mm 1 mps 745 mmHg 58%
    10:00 +12°C° 0 mm 1 mps 746 mmHg 50%
    11:00 +13°C° 0 mm 1 mps 745 mmHg 46%
    12:00 +15°C° 0 mm 1 mps 745 mmHg 42%
    13:00 +16°C° 0 mm 1 mps 745 mmHg 37%
    14:00 +15°C° 0 mm 0 mps 745 mmHg 39%
    15:00 +15°C° 0 mm 0 mps 745 mmHg 41%
    16:00 +14°C° 0 mm 0 mps 744 mmHg 43%
    17:00 +13°C° 0 mm 0 mps 745 mmHg 47%
    18:00 +11°C° 0 mm 0 mps 745 mmHg 51%
    19:00 +9°C° 0 mm 0 mps 745 mmHg 55%
    20:00 +10°C° 0 mm 1 mps 745 mmHg 58%
    21:00 +9°C° 0 mm 1 mps 745 mmHg 61%
    22:00 +9°C° 0 mm 1 mps 746 mmHg 64%
    23:00 +8°C° 0 mm 1 mps 746 mmHg 67%

    20 February, Wednesday

    Time Temperature Precipitation Wind Pressure Humidity
    00:00 +8°C° 0 mm 1 mps 746 mmHg 70%
    01:00 +7°C° 0 mm 1 mps 746 mmHg 73%
    02:00 +7°C° 0 mm 1 mps 746 mmHg 75%
    03:00 +6°C° 0 mm 1 mps 746 mmHg 76%
    04:00 +6°C° 0 mm 1 mps 746 mmHg 78%
    05:00 +6°C° 0 mm 1 mps 746 mmHg 79%
    06:00 +5°C° 0 mm 1 mps 747 mmHg 80%
    07:00 +5°C° 0 mm 1 mps 747 mmHg 81%
    08:00 +7°C° 0 mm 1 mps 747 mmHg 74%
    09:00 +9°C° 0 mm 1 mps 748 mmHg 67%
    10:00 +11°C° 0 mm 1 mps 748 mmHg 59%
    11:00 +12°C° 0 mm 1 mps 748 mmHg 55%
    12:00 +13°C° 0 mm 1 mps 748 mmHg 50%
    13:00 +14°C° 0 mm 1 mps 747 mmHg 46%
    14:00 +14°C° 0 mm 1 mps 747 mmHg 46%
    15:00 +14°C° 0 mm 1 mps 747 mmHg 46%
    16:00 +14°C° 0 mm 1 mps 747 mmHg 47%
    17:00 +12°C° 0 mm 1 mps 747 mmHg 53%
    18:00 +10°C° 0 mm 0 mps 747 mmHg 58%
    19:00 +8°C° 0 mm 0 mps 748 mmHg 64%
    20:00 +9°C° 0 mm 1 mps 748 mmHg 66%
    21:00 +8°C° 0 mm 1 mps 748 mmHg 68%
    22:00 +8°C° 0 mm 1 mps 748 mmHg 70%
    23:00 +7°C° 0 mm 1 mps 748 mmHg 71%

    21 February, Thursday

    Time Temperature Precipitation Wind Pressure Humidity
    00:00 +7°C° 0 mm 1 mps 748 mmHg 73%
    01:00 +7°C° 0 mm 1 mps 748 mmHg 74%
    02:00 +6°C° 0 mm 1 mps 748 mmHg 75%
    03:00 +6°C° 0 mm 1 mps 748 mmHg 75%
    04:00 +6°C° 0 mm 1 mps 748 mmHg 76%
    05:00 +6°C° 0 mm 1 mps 748 mmHg 76%
    06:00 +5°C° 0 mm 1 mps 748 mmHg 77%
    07:00 +5°C° 0 mm 1 mps 748 mmHg 77%
    08:00 +7°C° 0 mm 1 mps 748 mmHg 69%
    09:00 +9°C° 0 mm 1 mps 749 mmHg 62%
    10:00 +10°C° 0 mm 0 mps 749 mmHg 55%
    11:00 +12°C° 0 mm 1 mps 748 mmHg 52%
    12:00 +14°C° 0 mm 1 mps 748 mmHg 49%
    13:00 +15°C° 0 mm 1 mps 748 mmHg 46%
    14:00 +14°C° 0 mm 1 mps 748 mmHg 46%
    15:00 +14°C° 0 mm 1 mps 747 mmHg 46%
    16:00 +14°C° 0 mm 1 mps 747 mmHg 47%
    17:00 +11°C° 0 mm 0 mps 747 mmHg 52%
    18:00 +10°C° 0 mm 0 mps 747 mmHg 57%
    19:00 +9°C° 0 mm 0 mps 747 mmHg 62%
    20:00 +8°C° 0 mm 0 mps 747 mmHg 64%
    21:00 +8°C° 0 mm 0 mps 747 mmHg 66%
    22:00 +8°C° 0 mm 1 mps 747 mmHg 67%
    23:00 +8°C° 0 mm 1 mps 747 mmHg 69%
    Show more